| time (UTC) | temp F | wind direction | speed MPH | gust MPH | rain 1hr in | rain 24hr in | rain mn in | humidity % | barometer mb |
| 20260503234550 | 77 | 157 | 3.0 | 8.0 | 0.00 | 0.01 | 0.01 | 49 | 1017.9 |
| 20260503234038 | 77 | 168 | 2.0 | 9.0 | 0.00 | 0.01 | 0.01 | 49 | 1018.0 |
| 20260503233538 | 77 | 211 | 3.0 | 9.0 | 0.00 | 0.01 | 0.01 | 48 | 1018.0 |
| 20260503233048 | 78 | 179 | 2.0 | 9.0 | 0.00 | 0.01 | 0.01 | 50 | 1018.1 |
| 20260503232537 | 78 | 155 | 4.0 | 9.0 | 0.00 | 0.01 | 0.01 | 49 | 1018.0 |
| 20260503232036 | 78 | 198 | 3.0 | 8.0 | 0.00 | 0.01 | 0.01 | 50 | 1018.0 |
| 20260503231547 | 78 | 171 | 2.0 | 8.0 | 0.00 | 0.01 | 0.01 | 51 | 1017.9 |
| 20260503231036 | 78 | 148 | 3.0 | 9.0 | 0.00 | 0.01 | 0.01 | 51 | 1018.0 |
| 20260503230536 | 78 | 174 | 4.0 | 9.0 | 0.00 | 0.01 | 0.01 | 51 | 1018.0 |
| 20260503225538 | 78 | 117 | 3.0 | 9.0 | 0.00 | 0.01 | 0.01 | 49 | 1018.1 |
| 20260503225037 | 78 | 136 | 0.0 | 6.0 | 0.00 | 0.01 | 0.01 | 52 | 1018.1 |
| 20260503224555 | 78 | 0 | 1.0 | 6.0 | 0.00 | 0.01 | 0.01 | 49 | 1018.1 |
| 20260503224038 | 78 | 140 | 2.0 | 5.0 | 0.00 | 0.01 | 0.01 | 48 | 1018.2 |
| 20260503223537 | 78 | 150 | 1.0 | 5.0 | 0.00 | 0.01 | 0.01 | 50 | 1018.3 |
| 20260503223046 | 78 | 166 | 1.0 | 5.0 | 0.00 | 0.01 | 0.01 | 50 | 1018.3 |
| 20260503222538 | 78 | 166 | 1.0 | 5.0 | 0.00 | 0.01 | 0.01 | 48 | 1018.3 |
| 20260503222040 | 78 | 183 | 1.0 | 8.0 | 0.00 | 0.01 | 0.01 | 51 | 1018.3 |
| 20260503221543 | 78 | 239 | 1.0 | 8.0 | 0.00 | 0.01 | 0.01 | 48 | 1018.4 |
| 20260503221036 | 78 | 196 | 2.0 | 4.0 | 0.00 | 0.01 | 0.01 | 49 | 1018.5 |
| 20260503220539 | 78 | 215 | 0.0 | 8.0 | 0.00 | 0.01 | 0.01 | 49 | 1018.5 |
| 20260503220053 | 79 | 215 | 1.0 | 8.0 | 0.00 | 0.01 | 0.01 | 47 | 1018.7 |
| 20260503215539 | 80 | 165 | 2.0 | 8.0 | 0.00 | 0.01 | 0.01 | 46 | 1018.7 |
| 20260503215035 | 80 | 0 | 0.0 | 5.0 | 0.00 | 0.01 | 0.01 | 47 | 1018.6 |
| 20260503214552 | 79 | 222 | 1.0 | 7.0 | 0.00 | 0.01 | 0.01 | 48 | 1018.5 |
| 20260503214039 | 79 | 182 | 2.0 | 8.0 | 0.00 | 0.01 | 0.01 | 49 | 1018.7 |
| 20260503213539 | 79 | 188 | 2.0 | 9.0 | 0.00 | 0.01 | 0.01 | 48 | 1018.7 |
| 20260503213054 | 79 | 204 | 4.0 | 9.0 | 0.00 | 0.01 | 0.01 | 45 | 1018.8 |
| 20260503212535 | 79 | 207 | 3.0 | 8.0 | 0.00 | 0.01 | 0.01 | 49 | 1019.0 |
| 20260503212038 | 79 | 140 | 0.0 | 7.0 | 0.00 | 0.01 | 0.01 | 48 | 1019.2 |
| 20260503211604 | 78 | 0 | 0.0 | 7.0 | 0.00 | 0.01 | 0.01 | 47 | 1019.3 |
| 20260503211038 | 78 | 140 | 3.0 | 7.0 | 0.00 | 0.01 | 0.01 | 46 | 1019.5 |
| 20260503210535 | 78 | 166 | 3.0 | 7.0 | 0.00 | 0.01 | 0.01 | 48 | 1019.5 |
| 20260503210043 | 78 | 146 | 1.0 | 9.0 | 0.00 | 0.01 | 0.01 | 49 | 1019.7 |
| 20260503205538 | 79 | 192 | 3.0 | 9.0 | 0.00 | 0.01 | 0.01 | 45 | 1019.7 |
| 20260503205039 | 79 | 146 | 4.0 | 9.0 | 0.00 | 0.01 | 0.01 | 45 | 1019.8 |
| 20260503204548 | 79 | 257 | 0.0 | 7.0 | 0.00 | 0.01 | 0.01 | 48 | 1019.8 |
| 20260503204039 | 79 | 257 | 1.0 | 7.0 | 0.00 | 0.01 | 0.01 | 49 | 1019.9 |
| 20260503203536 | 79 | 259 | 1.0 | 4.0 | 0.00 | 0.01 | 0.01 | 47 | 1020.0 |
| 20260503203049 | 79 | 0 | 1.0 | 5.0 | 0.00 | 0.01 | 0.01 | 47 | 1020.1 |
| 20260503202539 | 79 | 250 | 2.0 | 6.0 | 0.00 | 0.01 | 0.01 | 46 | 1020.2 |
| 20260503202035 | 79 | 250 | 2.0 | 6.0 | 0.00 | 0.01 | 0.01 | 45 | 1020.3 |
| 20260503201548 | 79 | 0 | 1.0 | 7.0 | 0.00 | 0.01 | 0.01 | 44 | 1020.4 |
| 20260503201039 | 79 | 240 | 2.0 | 7.0 | 0.00 | 0.01 | 0.01 | 45 | 1020.5 |
| 20260503200539 | 78 | 253 | 1.0 | 5.0 | 0.00 | 0.01 | 0.01 | 46 | 1020.6 |
| 20260503200056 | 78 | 229 | 2.0 | 5.0 | 0.00 | 0.01 | 0.01 | 48 | 1020.7 |
| 20260503195538 | 77 | 0 | 1.0 | 5.0 | 0.00 | 0.01 | 0.01 | 48 | 1020.7 |
| 20260503195038 | 77 | 67 | 1.0 | 6.0 | 0.00 | 0.01 | 0.01 | 44 | 1020.8 |
| 20260503194554 | 78 | 140 | 2.0 | 7.0 | 0.00 | 0.01 | 0.01 | 45 | 1021.0 |
| 20260503194037 | 78 | 103 | 3.0 | 7.0 | 0.00 | 0.01 | 0.01 | 45 | 1021.1 |
| 20260503193536 | 78 | 172 | 3.0 | 7.0 | 0.00 | 0.01 | 0.01 | 45 | 1021.3 |
| 20260503193058 | 78 | 216 | 1.0 | 6.0 | 0.00 | 0.01 | 0.01 | 49 | 1021.3 |
| 20260503192536 | 78 | 139 | 2.0 | 6.0 | 0.00 | 0.01 | 0.01 | 46 | 1021.4 |
| 20260503192035 | 78 | 223 | 1.0 | 7.0 | 0.00 | 0.01 | 0.01 | 50 | 1021.4 |
| 20260503191549 | 78 | 180 | 3.0 | 8.0 | 0.00 | 0.01 | 0.01 | 49 | 1021.5 |
| 20260503191039 | 77 | 244 | 2.0 | 8.0 | 0.00 | 0.01 | 0.01 | 52 | 1021.5 |
| 20260503190539 | 77 | 188 | 3.0 | 8.0 | 0.00 | 0.01 | 0.01 | 51 | 1021.6 |
| 20260503190049 | 77 | 199 | 3.0 | 8.0 | 0.00 | 0.01 | 0.01 | 54 | 1021.7 |
| 20260503185536 | 77 | 336 | 2.0 | 8.0 | 0.00 | 0.01 | 0.01 | 53 | 1021.7 |
| 20260503185036 | 77 | 253 | 2.0 | 7.0 | 0.00 | 0.01 | 0.01 | 49 | 1021.8 |
| 20260503184558 | 77 | 244 | 0.0 | 7.0 | 0.00 | 0.01 | 0.01 | 49 | 1021.9 |
| 20260503184036 | 77 | 285 | 1.0 | 8.0 | 0.00 | 0.01 | 0.01 | 51 | 1021.9 |
| 20260503183535 | 76 | 196 | 3.0 | 8.0 | 0.00 | 0.01 | 0.01 | 49 | 1022.0 |
| 20260503183053 | 77 | 227 | 2.0 | 8.0 | 0.00 | 0.01 | 0.01 | 53 | 1022.1 |
| 20260503182536 | 77 | 234 | 1.0 | 5.0 | 0.00 | 0.01 | 0.01 | 54 | 1022.1 |
| 20260503182035 | 77 | 337 | 2.0 | 10.0 | 0.00 | 0.01 | 0.01 | 54 | 1022.2 |
| 20260503181608 | 76 | 222 | 3.0 | 10.0 | 0.00 | 0.01 | 0.01 | 56 | 1022.3 |
| 20260503181035 | 76 | 151 | 3.0 | 9.0 | 0.00 | 0.01 | 0.01 | 53 | 1022.4 |
| 20260503180535 | 76 | 163 | 4.0 | 9.0 | 0.00 | 0.01 | 0.01 | 53 | 1022.5 |
| 20260503180112 | 76 | 221 | 1.0 | 10.0 | 0.00 | 0.01 | 0.01 | 52 | 1022.5 |
| 20260503175538 | 76 | 216 | 2.0 | 10.0 | 0.00 | 0.01 | 0.01 | 56 | 1022.6 |
| 20260503175038 | 76 | 167 | 4.0 | 8.0 | 0.00 | 0.01 | 0.01 | 52 | 1022.7 |
| 20260503174557 | 75 | 195 | 2.0 | 10.0 | 0.00 | 0.01 | 0.01 | 56 | 1022.8 |
| 20260503174038 | 75 | 231 | 3.0 | 10.0 | 0.00 | 0.01 | 0.01 | 54 | 1022.9 |
| 20260503173538 | 75 | 234 | 2.0 | 7.0 | 0.00 | 0.01 | 0.01 | 56 | 1023.0 |
| 20260503173103 | 75 | 267 | 3.0 | 7.0 | 0.00 | 0.01 | 0.01 | 56 | 1023.1 |
| 20260503172538 | 75 | 246 | 2.0 | 7.0 | 0.00 | 0.01 | 0.01 | 55 | 1023.1 |
| 20260503172037 | 75 | 213 | 1.0 | 7.0 | 0.00 | 0.01 | 0.01 | 58 | 1023.2 |
| 20260503171549 | 74 | 194 | 2.0 | 9.0 | 0.00 | 0.01 | 0.01 | 57 | 1023.3 |
| 20260503171039 | 74 | 253 | 3.0 | 9.0 | 0.00 | 0.01 | 0.01 | 58 | 1023.4 |
| 20260503170539 | 74 | 207 | 2.0 | 9.0 | 0.00 | 0.01 | 0.01 | 60 | 1023.4 |
| 20260503150539 | 68 | 173 | 1.0 | 7.0 | 0.00 | 0.01 | 0.01 | 75 | 1023.6 |
| 20260503131035 | 58 | 0 | 0.0 | 0.0 | 0.01 | 0.01 | 0.01 | 93 | 1022.9 |
| 20260503130537 | 58 | 0 | 0.0 | 0.0 | 0.01 | 0.01 | 0.01 | 94 | 1022.9 |
| 20260503110538 | 51 | 0 | 0.0 | 0.0 | 0.00 | 0.00 | 0.00 | 92 | 1021.7 |
| 20260503081546 | 53 | 0 | 0.0 | 0.0 | 0.00 | 0.00 | 0.00 | 92 | 1021.4 |
| 20260503081039 | 52 | 0 | 0.0 | 0.0 | 0.00 | 0.00 | 0.00 | 91 | 1021.4 |
| 20260503080536 | 52 | 0 | 0.0 | 0.0 | 0.00 | 0.00 | 0.00 | 91 | 1021.3 |
| 20260503072539 | 53 | 0 | 0.0 | 0.0 | 0.00 | 0.00 | 0.00 | 91 | 1021.7 |
| 20260503072036 | 53 | 0 | 0.0 | 0.0 | 0.00 | 0.00 | 0.00 | 91 | 1021.7 |
| 20260503071552 | 53 | 0 | 0.0 | 0.0 | 0.00 | 0.00 | 0.00 | 91 | 1021.7 |
| 20260503071040 | 53 | 0 | 0.0 | 0.0 | 0.00 | 0.00 | 0.00 | 91 | 1021.7 |
| 20260503070538 | 53 | 0 | 0.0 | 0.0 | 0.00 | 0.00 | 0.00 | 90 | 1021.7 |
| 20260503055038 | 54 | 0 | 0.0 | 0.0 | 0.00 | 0.00 | 0.00 | 89 | 1021.8 |
| 20260503054546 | 54 | 0 | 0.0 | 0.0 | 0.00 | 0.00 | 0.00 | 89 | 1021.8 |
| 20260503054039 | 54 | 0 | 0.0 | 0.0 | 0.00 | 0.00 | 0.00 | 89 | 1021.8 |
| 20260503053538 | 54 | 0 | 0.0 | 0.0 | 0.00 | 0.00 | 0.00 | 89 | 1021.7 |
| 20260503053047 | 55 | 0 | 0.0 | 0.0 | 0.00 | 0.00 | 0.00 | 89 | 1021.6 |
| 20260503052536 | 55 | 0 | 0.0 | 0.0 | 0.00 | 0.00 | 0.00 | 89 | 1021.6 |
| 20260503052036 | 55 | 0 | 0.0 | 0.0 | 0.00 | 0.00 | 0.00 | 89 | 1021.8 |
| 20260503051550 | 55 | 0 | 0.0 | 0.0 | 0.00 | 0.00 | 0.00 | 89 | 1021.7 |
| 20260503051035 | 55 | 0 | 0.0 | 0.0 | 0.00 | 0.00 | 0.00 | 90 | 1021.6 |
| 20260503050540 | 55 | 0 | 0.0 | 0.0 | 0.00 | 0.00 | 0.00 | 89 | 1021.7 |
| 20260503050048 | 55 | 0 | 0.0 | 0.0 | 0.00 | 0.00 | 0.00 | 87 | 1021.6 |
| 20260503045539 | 55 | 0 | 0.0 | 0.0 | 0.00 | 0.00 | 0.00 | 87 | 1021.6 |
| 20260503045038 | 55 | 0 | 0.0 | 0.0 | 0.00 | 0.00 | 0.00 | 87 | 1021.7 |
| 20260503044548 | 55 | 0 | 0.0 | 0.0 | 0.00 | 0.00 | 0.00 | 87 | 1021.6 |
| 20260503044036 | 55 | 0 | 0.0 | 0.0 | 0.00 | 0.00 | 0.00 | 87 | 1021.6 |
| 20260503043536 | 55 | 0 | 0.0 | 0.0 | 0.00 | 0.00 | 0.00 | 87 | 1021.5 |
| 20260503043046 | 56 | 0 | 0.0 | 0.0 | 0.00 | 0.00 | 0.00 | 88 | 1021.5 |
| 20260503042536 | 56 | 0 | 0.0 | 0.0 | 0.00 | 0.00 | 0.00 | 87 | 1021.3 |
| 20260503042038 | 56 | 0 | 0.0 | 0.0 | 0.00 | 0.00 | 0.00 | 87 | 1021.4 |
| 20260503041550 | 56 | 0 | 0.0 | 0.0 | 0.00 | 0.00 | 0.00 | 86 | 1021.3 |
| 20260503041039 | 56 | 0 | 0.0 | 0.0 | 0.00 | 0.00 | 0.00 | 86 | 1021.3 |
| 20260503040538 | 56 | 0 | 0.0 | 0.0 | 0.00 | 0.00 | 0.00 | 86 | 1021.4 |
| 20260503040057 | 57 | 0 | 0.0 | 0.0 | 0.00 | 0.00 | 0.00 | 86 | 1021.5 |
| 20260503035539 | 57 | 0 | 0.0 | 0.0 | 0.00 | 0.00 | 0.00 | 86 | 1021.5 |
| 20260503035039 | 57 | 0 | 0.0 | 0.0 | 0.00 | 0.00 | 0.00 | 87 | 1021.5 |
| 20260503034559 | 57 | 0 | 0.0 | 0.0 | 0.00 | 0.00 | 0.00 | 87 | 1021.3 |
| 20260503034036 | 57 | 0 | 0.0 | 0.0 | 0.00 | 0.00 | 0.00 | 87 | 1021.4 |
| 20260503033538 | 57 | 0 | 0.0 | 1.0 | 0.00 | 0.00 | 0.00 | 87 | 1021.3 |
| 20260503033053 | 57 | 0 | 0.0 | 1.0 | 0.00 | 0.00 | 0.00 | 87 | 1021.1 |
| 20260503032538 | 57 | 0 | 0.0 | 0.0 | 0.00 | 0.00 | 0.00 | 85 | 1021.0 |
| 20260503032038 | 57 | 0 | 0.0 | 0.0 | 0.00 | 0.00 | 0.00 | 85 | 1021.0 |
| 20260503031547 | 58 | 0 | 0.0 | 0.0 | 0.00 | 0.00 | 0.00 | 84 | 1021.1 |
| 20260503031038 | 58 | 0 | 0.0 | 0.0 | 0.00 | 0.00 | 0.00 | 85 | 1021.0 |
| 20260503030535 | 58 | 0 | 0.0 | 0.0 | 0.00 | 0.00 | 0.00 | 84 | 1021.1 |
| 20260503030112 | 58 | 0 | 0.0 | 0.0 | 0.00 | 0.00 | 0.00 | 84 | 1021.1 |
| 20260503025536 | 58 | 0 | 0.0 | 0.0 | 0.00 | 0.01 | 0.00 | 82 | 1021.1 |
| 20260503025037 | 59 | 0 | 0.0 | 0.0 | 0.00 | 0.01 | 0.00 | 82 | 1021.1 |
| 20260503024543 | 59 | 0 | 0.0 | 0.0 | 0.00 | 0.01 | 0.00 | 82 | 1021.0 |
| 20260503024039 | 59 | 0 | 0.0 | 0.0 | 0.00 | 0.01 | 0.00 | 82 | 1020.9 |
| 20260503023539 | 59 | 0 | 0.0 | 0.0 | 0.00 | 0.01 | 0.00 | 81 | 1020.9 |
| 20260503023051 | 59 | 0 | 0.0 | 0.0 | 0.00 | 0.01 | 0.00 | 80 | 1020.8 |
| 20260503022535 | 60 | 0 | 0.0 | 0.0 | 0.00 | 0.01 | 0.00 | 80 | 1020.6 |
| 20260503022038 | 60 | 0 | 0.0 | 0.0 | 0.00 | 0.01 | 0.00 | 80 | 1020.5 |
| 20260503021545 | 60 | 0 | 0.0 | 0.0 | 0.00 | 0.01 | 0.00 | 80 | 1020.5 |
| 20260503021038 | 61 | 0 | 0.0 | 0.0 | 0.00 | 0.01 | 0.00 | 80 | 1020.4 |
| 20260503020538 | 61 | 0 | 0.0 | 0.0 | 0.00 | 0.01 | 0.00 | 79 | 1020.4 |
| 20260503020049 | 61 | 0 | 0.0 | 0.0 | 0.00 | 0.01 | 0.00 | 78 | 1020.4 |
| 20260503015535 | 62 | 0 | 0.0 | 0.0 | 0.00 | 0.01 | 0.00 | 78 | 1020.4 |
| 20260503015038 | 62 | 0 | 0.0 | 0.0 | 0.00 | 0.01 | 0.00 | 77 | 1020.3 |
| 20260503014601 | 63 | 0 | 0.0 | 0.0 | 0.00 | 0.01 | 0.00 | 77 | 1020.1 |
| 20260503014036 | 63 | 0 | 0.0 | 0.0 | 0.00 | 0.01 | 0.00 | 77 | 1020.1 |
| 20260503013539 | 64 | 0 | 0.0 | 0.0 | 0.00 | 0.01 | 0.00 | 76 | 1020.1 |
| 20260503013051 | 64 | 0 | 0.0 | 0.0 | 0.00 | 0.01 | 0.00 | 75 | 1020.1 |
| 20260503012538 | 65 | 0 | 0.0 | 0.0 | 0.00 | 0.01 | 0.00 | 74 | 1020.1 |
| 20260503012041 | 66 | 0 | 0.0 | 0.0 | 0.00 | 0.01 | 0.00 | 72 | 1020.0 |
| 20260503011555 | 67 | 0 | 0.0 | 0.0 | 0.00 | 0.01 | 0.00 | 71 | 1019.9 |
| 20260503011041 | 68 | 0 | 0.0 | 0.0 | 0.00 | 0.01 | 0.00 | 70 | 1019.8 |
| 20260503010536 | 69 | 0 | 0.0 | 0.0 | 0.00 | 0.01 | 0.00 | 69 | 1019.7 |
| 20260503010103 | 70 | 0 | 0.0 | 0.0 | 0.00 | 0.01 | 0.00 | 68 | 1019.7 |
| 20260503005540 | 70 | 0 | 0.0 | 0.0 | 0.00 | 0.03 | 0.00 | 67 | 1019.6 |
| 20260503005039 | 70 | 0 | 0.0 | 0.0 | 0.00 | 0.03 | 0.00 | 64 | 1019.6 |
| 20260503004546 | 71 | 0 | 0.0 | 0.0 | 0.00 | 0.03 | 0.00 | 62 | 1019.5 |
| 20260503004039 | 71 | 0 | 0.0 | 1.0 | 0.00 | 0.03 | 0.00 | 60 | 1019.5 |
| 20260503003536 | 71 | 0 | 0.0 | 3.0 | 0.00 | 0.03 | 0.00 | 61 | 1019.5 |
| 20260503003118 | 72 | 0 | 0.0 | 3.0 | 0.00 | 0.03 | 0.00 | 60 | 1019.5 |
| 20260503002537 | 72 | 30 | 2.0 | 5.0 | 0.00 | 0.03 | 0.00 | 59 | 1019.5 |
| 20260503002037 | 72 | 30 | 2.0 | 5.0 | 0.00 | 0.03 | 0.00 | 58 | 1019.4 |
| 20260503001545 | 72 | 16 | 2.0 | 5.0 | 0.00 | 0.03 | 0.00 | 58 | 1019.3 |
| 20260503001039 | 73 | 35 | 2.0 | 5.0 | 0.00 | 0.03 | 0.00 | 58 | 1019.4 |
| 20260503000535 | 73 | 29 | 2.0 | 5.0 | 0.00 | 0.03 | 0.00 | 57 | 1019.3 |
| 20260503000053 | 73 | 29 | 3.0 | 8.0 | 0.00 | 0.03 | 0.00 | 57 | 1019.3 |
| 20260502235539 | 73 | 52 | 3.0 | 8.0 | 0.00 | 0.06 | 0.00 | 54 | 1019.3 |
| 20260502235038 | 73 | 40 | 3.0 | 10.0 | 0.00 | 0.06 | 0.00 | 54 | 1019.3 |